Home   Weather   Wörgl   Past weeks
Flag for Austria

Past Weather in Wörgl, Tyrol, Austria — Yesterday and Last 2 Weeks

Now
60 °F

Cool.


Feels Like: 60 °F
Forecast: 78 / 59 °F
Wind: No wind

Location: Kufstein

Current Time: Aug 25, 2019 at 3:44:48 am

Latest Report: Aug 25, 2019 at 3:00 am


Visibility: N/A

Pressure: 30.13 "Hg (28.35 "Hg at 514m altitude)

Humidity: 96%

Dew Point: 58 °F

Location of WörglLocation

Past Weather in Wörgl — Graph

°F

Wörgl Temperature Yesterday

Maximum temperature yesterday: 80 °F (at 4:00 pm)
Minimum temperature yesterday: 61 °F (at 7:00 am)
Average temperature yesterday: 69 °F

High & Low Weather Summary for the Past Weeks

 TemperatureHumidityPressure
High88 °F (Aug 18, 5:00 pm)97% (Aug 13, 5:00 am)30.40 "Hg (Aug 13, 5:00 am)
Low50 °F (Aug 15, 6:00 am)35% (Aug 18, 5:00 pm)29.76 "Hg (Aug 18, 5:00 pm)
Average65 °F77%30.08 "Hg
* Reported Aug 10 2:00 am — Aug 25 2:00 am, Wörgl. Weather by CustomWeather, © 2019

Note: Actual official high and low records may vary slightly from our data, if they occured in-between our weather recording intervals... More about our weather records

Advertising

Wörgl Weather History for the Previous 24 Hours

Scroll right to see more
 ConditionsComfort  
Time TempWeatherWind HumidityBarometerVisibility
2:00 am
Sun, Aug 25
60 °FCool.1 mph95%30.12 "HgN/A
1:00 am61 °FCool.1 mph94%30.13 "HgN/A
12:00 am62 °FCool.1 mph95%30.13 "HgN/A
11:00 pm
Sat, Aug 24
63 °FMild.No wind95%30.13 "HgN/A
9:00 pm64 °FFog.No wind92%30.15 "HgN/A
8:00 pm64 °FMild.1 mph92%30.14 "HgN/A
7:00 pm65 °FMild.1 mph86%30.11 "HgN/A
6:00 pm73 °FMild.1 mph74%30.07 "HgN/A
5:00 pm77 °FWarm.3 mph66%30.03 "HgN/A
4:00 pm80 °FWarm.5 mph58%30.01 "HgN/A
3:00 pm79 °FWarm.3 mph60%30.02 "HgN/A
2:00 pm78 °FWarm.3 mph59%30.03 "HgN/A
1:00 pm77 °FWarm.2 mph55%30.04 "HgN/A
12:00 pm74 °FMild.1 mph58%30.08 "HgN/A
10:00 am68 °FMild.2 mph74%30.11 "HgN/A
9:00 am67 °FMild.1 mph77%30.12 "HgN/A
8:00 am64 °FMild.1 mph84%30.13 "HgN/A
7:00 am61 °FCool.1 mph90%30.15 "HgN/A
5:00 am63 °FMild.2 mph90%30.14 "HgN/A
4:00 am63 °FMild.1 mph91%30.14 "HgN/A
3:00 am64 °FMild.1 mph89%30.15 "HgN/A
Weather by CustomWeather, © 2019

See weather overview